Beaver Island, MI

9:41 AM EST on December 08, 2016 (GMT -0500)
Beaver Island

Weather History for KSJX - December, 2013

Change the Weather History Date:

Wednesday, December 25, 2013

  Actual Average Record
Temperature  
Mean Temperature 21 °F -  
Max Temperature 23 °F 28 °F 51 °F (1982)
Min Temperature 20 °F 16 °F 0 °F (1993)
Degree Days  
Heating Degree Days 44    
Moisture  
Dew Point 17 °F    
Average Humidity 81    
Maximum Humidity 92    
Minimum Humidity 71    
Precipitation  
Precipitation 0.00 in - - ()
Sea Level Pressure  
Sea Level Pressure 30.04 in    
Wind  
Wind Speed 15 mph (SW)    
Max Wind Speed 24 mph    
Max Gust Speed 31 mph    
Visibility 5 miles    
Events Snow    
Averages and records for this station are not official NWS values.
T = Trace of Precipitation, MM = Missing Value Source: NWS Daily Summary

Daily Weather History Graph

Daily Weather History Graph

Search for Another Location

Airport or City:

Trip Planner

Search our weather history database for the weather conditions in past years. The results will help you decide how hot, cold, wet, or windy it might be!

Date:

Astronomy

Dec. 25, 2013 Rise Set
Actual Time 8:21 AM EST 5:03 PM EST
Civil Twilight 7:47 AM EST 5:37 PM EST
Nautical Twilight 7:09 AM EST 6:15 PM EST
Astronomical Twilight 6:33 AM EST 6:51 PM EST
Moon 12:31 AM EST (12/25) 12:22 PM EST (12/25)
Length of Visible Light 9h 50m
Length of Day
8h 41m
Waning Gibbous, 49% of the Moon is Illuminated
Dec 25
Waning Gibbous
Jan 1
New
Jan 7
First Quarter
Jan 15
Full
Jan 24
Last Quarter

Hourly Weather History & Observations

Time (EST) Temp. Windchill Dew Point Humidity Pressure Visibility Wind Dir Wind Speed Gust Speed Precip Events Conditions
5:32 AM 22.1 °F 8.5 °F 19.2 °F 89% 30.16 in 1.0 mi SSE 16.1 mph 23.0 mph N/A Snow Snow
5:35 AM 22.1 °F 6.8 °F 19.2 °F 89% 30.15 in 1.0 mi South 20.7 mph 31.1 mph N/A Snow Snow
5:55 AM 21.9 °F 8.7 °F 19.0 °F 89% 30.15 in 1.0 mi SSE 15.0 mph 24.2 mph N/A Snow Snow
6:15 AM 21.7 °F 8.0 °F 19.0 °F 89% 30.14 in 0.8 mi SSE 16.1 mph 25.3 mph N/A Snow Snow
6:35 AM 21.7 °F 8.5 °F 18.5 °F 87% 30.13 in 1.2 mi SSE 15.0 mph 28.8 mph N/A Snow Light Snow
6:55 AM 21.7 °F 8.5 °F 19.0 °F 89% 30.12 in 1.0 mi SSE 15.0 mph 31.1 mph N/A Snow Light Snow
7:15 AM 21.7 °F 10.2 °F 19.0 °F 89% 30.11 in 1.0 mi South 11.5 mph 24.2 mph N/A Snow Snow
7:35 AM 22.1 °F 10.0 °F 18.5 °F 86% 30.10 in 3.0 mi South 12.7 mph 24.2 mph N/A Snow Light Snow
7:55 AM 21.9 °F 10.4 °F 18.1 °F 85% 30.09 in 3.0 mi SSE 11.5 mph 25.3 mph N/A Snow Light Snow
8:16 AM 22.1 °F 10.6 °F 18.3 °F 85% 30.08 in 3.0 mi South 11.5 mph 18.4 mph N/A Snow Light Snow
8:35 AM 22.5 °F 11.1 °F 17.8 °F 82% 30.08 in 2.5 mi South 11.5 mph 23.0 mph N/A Snow Light Snow
8:55 AM 22.1 °F 9.5 °F 18.5 °F 86% 30.08 in 1.0 mi South 13.8 mph 20.7 mph N/A Snow Light Snow
9:15 AM 21.9 °F 10.4 °F 19.4 °F 90% 30.08 in 0.2 mi SSW 11.5 mph - N/A Snow Snow
9:35 AM 22.1 °F 10.6 °F 20.1 °F 92% 30.08 in 0.2 mi SSW 11.5 mph 18.4 mph N/A Snow Heavy Snow
9:56 AM 22.1 °F 12.8 °F 20.1 °F 92% 30.08 in 0.2 mi SSW 8.1 mph 17.3 mph N/A Snow Heavy Snow
10:15 AM 22.1 °F 8.9 °F 19.6 °F 90% 30.07 in 0.5 mi SW 15.0 mph 23.0 mph N/A Snow Snow
10:35 AM 22.5 °F 8.5 °F 19.4 °F 88% 30.07 in 1.0 mi SW 17.3 mph 25.3 mph N/A Snow Light Snow
10:55 AM 22.1 °F 8.5 °F 19.0 °F 88% 30.07 in 1.0 mi SW 16.1 mph 24.2 mph N/A Snow Light Snow
11:15 AM 22.8 °F 8.5 °F 19.0 °F 85% 30.06 in 1.2 mi SW 18.4 mph 25.3 mph N/A Snow Light Snow
11:35 AM 22.8 °F 8.9 °F 19.0 °F 85% 30.05 in 1.0 mi SW 17.3 mph 23.0 mph N/A Snow Light Snow
11:55 AM 22.5 °F 8.0 °F 19.0 °F 87% 30.04 in 0.8 mi SW 18.4 mph 27.6 mph N/A Snow Light Snow
12:15 PM 22.1 °F 7.6 °F 18.5 °F 86% 30.03 in 0.8 mi WSW 18.4 mph 25.3 mph N/A Snow Light Snow
12:36 PM 22.1 °F 7.2 °F 17.6 °F 83% 30.03 in 1.2 mi WSW 19.6 mph 27.6 mph N/A Snow Light Snow
12:55 PM 21.7 °F 5.2 °F 17.6 °F 84% 30.03 in 1.2 mi WSW 24.2 mph 28.8 mph N/A Snow Light Snow
1:15 PM 21.6 °F 7.3 °F 17.1 °F 83% 30.02 in 2.5 mi SW 17.3 mph 26.5 mph N/A Snow Light Snow
1:35 PM 21.6 °F 7.3 °F 16.9 °F 82% 30.02 in 3.0 mi WSW 17.3 mph 26.5 mph N/A Snow Light Snow
1:55 PM 21.2 °F 5.6 °F 16.9 °F 83% 30.01 in 2.0 mi WSW 20.7 mph 26.5 mph N/A Snow Light Snow
2:15 PM 21.2 °F 6.8 °F 16.7 °F 83% 30.01 in 3.0 mi WSW 17.3 mph 24.2 mph N/A Snow Light Snow
2:35 PM 21.2 °F 5.6 °F 16.5 °F 82% 30.00 in 3.0 mi WSW 20.7 mph 25.3 mph N/A Snow Light Snow
2:55 PM 21.7 °F 6.7 °F 16.9 °F 82% 30.00 in 3.0 mi WSW 19.6 mph 24.2 mph N/A Snow Light Snow
3:15 PM 22.1 °F 8.5 °F 16.2 °F 78% 30.00 in 2.5 mi SW 16.1 mph 23.0 mph N/A Snow Light Snow
3:35 PM 22.1 °F 8.0 °F 15.3 °F 75% 30.00 in 5.0 mi WSW 17.3 mph 23.0 mph N/A Snow Light Snow
3:55 PM 21.9 °F 7.8 °F 15.6 °F 77% 29.99 in 5.0 mi WSW 17.3 mph 25.3 mph N/A Snow Light Snow
4:16 PM 21.7 °F 6.7 °F 15.4 °F 77% 30.00 in 5.0 mi WSW 19.6 mph 24.2 mph N/A Snow Light Snow
4:35 PM 21.6 °F 9.9 °F 14.7 °F 75% 30.00 in 7.0 mi WSW 11.5 mph 21.9 mph N/A   Overcast
4:55 PM 21.6 °F 7.8 °F 14.7 °F 75% 30.00 in 7.0 mi WSW 16.1 mph 21.9 mph N/A Snow Light Snow
5:15 PM 21.6 °F 8.8 °F 14.7 °F 75% 30.00 in 10.0 mi WSW 13.8 mph 21.9 mph N/A   Overcast
5:35 PM 21.6 °F 6.9 °F 14.9 °F 76% 30.00 in 10.0 mi WSW 18.4 mph 21.9 mph N/A Snow Light Snow
5:55 PM 21.4 °F 7.5 °F 15.6 °F 78% 30.01 in 7.0 mi WSW 16.1 mph 23.0 mph N/A Snow Light Snow
6:15 PM 21.2 °F 7.3 °F 15.4 °F 78% 30.01 in 10.0 mi West 16.1 mph 19.6 mph N/A   Overcast
6:35 PM 21.0 °F 7.6 °F 14.7 °F 77% 30.01 in 10.0 mi West 15.0 mph - N/A   Overcast
6:55 PM 20.8 °F 10.4 °F 14.4 °F 76% 30.02 in 10.0 mi West 9.2 mph 16.1 mph N/A   Overcast
7:15 PM 20.8 °F 9.7 °F 14.7 °F 77% 30.02 in 10.0 mi West 10.4 mph - N/A   Overcast
7:35 PM 20.7 °F 8.8 °F 13.8 °F 75% 30.02 in 10.0 mi West 11.5 mph - N/A   Overcast
7:55 PM 20.3 °F 7.7 °F 13.8 °F 76% 30.02 in 10.0 mi WSW 12.7 mph - N/A   Overcast
8:15 PM 21.0 °F 9.9 °F 14.4 °F 75% 30.02 in 10.0 mi West 10.4 mph - N/A   Overcast
8:35 PM 21.2 °F 10.9 °F 14.2 °F 74% 30.02 in 10.0 mi West 9.2 mph - N/A   Overcast
8:55 PM 20.7 °F 11.9 °F 13.5 °F 74% 30.01 in 10.0 mi West 6.9 mph - N/A   Mostly Cloudy
9:15 PM 20.5 °F 10.8 °F 12.6 °F 71% 30.00 in 10.0 mi West 8.1 mph - N/A   Scattered Clouds
9:35 PM 20.5 °F 12.8 °F 13.1 °F 73% 30.01 in 10.0 mi West 5.8 mph - N/A   Mostly Cloudy
9:55 PM 21.7 °F 13.2 °F 13.8 °F 72% 30.00 in 10.0 mi West 6.9 mph - N/A   Overcast
10:15 PM 21.7 °F 13.2 °F 14.0 °F 72% 30.00 in 10.0 mi West 6.9 mph - N/A   Overcast
10:35 PM 22.1 °F 12.0 °F 14.9 °F 74% 30.00 in 10.0 mi West 9.2 mph - N/A   Overcast
10:55 PM 22.5 °F 14.1 °F 14.9 °F 73% 30.00 in 10.0 mi West 6.9 mph - N/A   Overcast
11:15 PM 22.5 °F 12.4 °F 15.6 °F 75% 29.99 in 10.0 mi West 9.2 mph - N/A   Overcast
11:35 PM 22.6 °F 13.4 °F 15.8 °F 75% 29.99 in 10.0 mi West 8.1 mph - N/A Snow Light Snow
11:55 PM 23.0 °F 13.9 °F 16.5 °F 76% 29.99 in 10.0 mi West 8.1 mph - N/A Snow Light Snow